| time (UTC) | temp F | wind direction | speed MPH | gust MPH | rain 1hr in | rain 24hr in | rain mn in | humidity % | barometer mb |
| 20260904171545 | 92 | 0 | 1.0 | 7.0 | 0.00 | 0.00 | 0.00 | 66 | 1015.9 |
| 20260904170042 | 91 | 156 | 2.0 | 8.0 | 0.00 | 0.00 | 0.00 | 68 | 1016.0 |
| 20260904164546 | 90 | 132 | 2.0 | 4.0 | 0.00 | 0.07 | 0.00 | 68 | 1016.1 |
| 20260904163034 | 90 | 232 | 2.0 | 5.0 | 0.00 | 0.07 | 0.00 | 69 | 1016.4 |
| 20260904161547 | 90 | 215 | 2.0 | 7.0 | 0.00 | 0.07 | 0.00 | 70 | 1016.4 |
| 20260904160038 | 90 | 202 | 3.0 | 10.0 | 0.00 | 0.07 | 0.00 | 70 | 1016.6 |
| 20260904154536 | 89 | 234 | 5.0 | 10.0 | 0.00 | 0.09 | 0.00 | 70 | 1016.7 |
| 20260904153059 | 89 | 213 | 2.0 | 10.0 | 0.00 | 0.09 | 0.00 | 71 | 1016.7 |
| 20260904151545 | 89 | 222 | 4.0 | 14.0 | 0.00 | 0.09 | 0.00 | 71 | 1016.5 |
| 20260904150042 | 89 | 219 | 2.0 | 7.0 | 0.00 | 0.09 | 0.00 | 72 | 1016.4 |
| 20260904144538 | 88 | 179 | 3.0 | 9.0 | 0.00 | 0.10 | 0.00 | 74 | 1016.6 |
| 20260904143041 | 87 | 152 | 3.0 | 6.0 | 0.00 | 0.10 | 0.00 | 75 | 1016.4 |
| 20260904141537 | 86 | 140 | 2.0 | 8.0 | 0.00 | 0.10 | 0.00 | 78 | 1016.4 |
| 20260904140039 | 84 | 217 | 3.0 | 6.0 | 0.00 | 0.10 | 0.00 | 81 | 1016.1 |
| 20260904134538 | 83 | 223 | 1.0 | 7.0 | 0.00 | 0.14 | 0.00 | 84 | 1016.0 |
| 20260904133045 | 82 | 160 | 3.0 | 7.0 | 0.00 | 0.14 | 0.00 | 87 | 1015.9 |
| 20260904131543 | 81 | 256 | 1.0 | 5.0 | 0.00 | 0.14 | 0.00 | 89 | 1015.8 |
| 20260904130037 | 80 | 150 | 1.0 | 10.0 | 0.00 | 0.14 | 0.00 | 90 | 1015.8 |
| 20260904124535 | 79 | 180 | 4.0 | 8.0 | 0.00 | 0.14 | 0.00 | 91 | 1015.7 |
| 20260904123037 | 79 | 196 | 1.0 | 5.0 | 0.00 | 0.14 | 0.00 | 91 | 1015.6 |
| 20260904121539 | 78 | 210 | 3.0 | 5.0 | 0.00 | 0.14 | 0.00 | 91 | 1015.4 |
| 20260904120039 | 78 | 204 | 1.0 | 2.0 | 0.00 | 0.14 | 0.00 | 91 | 1015.3 |
| 20260904114536 | 77 | 0 | 0.0 | 2.0 | 0.00 | 0.20 | 0.00 | 91 | 1015.3 |
| 20260904113042 | 77 | 0 | 0.0 | 2.0 | 0.00 | 0.20 | 0.00 | 91 | 1015.1 |
| 20260904111538 | 77 | 178 | 0.0 | 2.0 | 0.00 | 0.20 | 0.00 | 91 | 1015.0 |
| 20260904110037 | 77 | 0 | 0.0 | 2.0 | 0.00 | 0.20 | 0.00 | 91 | 1014.9 |
| 20260904104536 | 77 | 0 | 0.0 | 0.0 | 0.00 | 0.67 | 0.00 | 90 | 1014.6 |
| 20260904103049 | 77 | 0 | 0.0 | 0.0 | 0.00 | 0.67 | 0.00 | 90 | 1014.5 |
| 20260904101547 | 77 | 0 | 0.0 | 0.0 | 0.00 | 0.67 | 0.00 | 90 | 1014.5 |
| 20260904100035 | 77 | 0 | 0.0 | 0.0 | 0.00 | 0.67 | 0.00 | 90 | 1014.4 |
| 20260904094556 | 77 | 0 | 0.0 | 0.0 | 0.00 | 0.67 | 0.00 | 90 | 1014.4 |
| 20260904093038 | 77 | 0 | 0.0 | 0.0 | 0.00 | 0.67 | 0.00 | 90 | 1014.3 |
| 20260904091535 | 77 | 0 | 0.0 | 0.0 | 0.00 | 0.67 | 0.00 | 90 | 1014.2 |
| 20260904090037 | 77 | 0 | 0.0 | 0.0 | 0.00 | 0.67 | 0.00 | 90 | 1014.3 |
| 20260904084539 | 77 | 0 | 0.0 | 0.0 | 0.00 | 0.67 | 0.00 | 90 | 1014.2 |
| 20260904083046 | 77 | 0 | 0.0 | 0.0 | 0.00 | 0.67 | 0.00 | 90 | 1014.1 |
| 20260904081539 | 77 | 0 | 0.0 | 0.0 | 0.00 | 0.67 | 0.00 | 90 | 1014.0 |
| 20260904080038 | 77 | 0 | 0.0 | 0.0 | 0.00 | 0.67 | 0.00 | 90 | 1014.1 |
| 20260904074547 | 77 | 0 | 0.0 | 0.0 | 0.00 | 0.68 | 0.00 | 90 | 1014.0 |
| 20260904073047 | 77 | 0 | 0.0 | 0.0 | 0.00 | 0.68 | 0.00 | 89 | 1013.9 |
| 20260904071539 | 77 | 0 | 0.0 | 0.0 | 0.00 | 0.68 | 0.00 | 89 | 1013.9 |
| 20260904070039 | 77 | 0 | 0.0 | 0.0 | 0.00 | 0.68 | 0.00 | 89 | 1014.0 |
| 20260904064540 | 77 | 0 | 0.0 | 0.0 | 0.00 | 0.68 | 0.00 | 89 | 1014.2 |
| 20260904063039 | 78 | 0 | 0.0 | 0.0 | 0.00 | 0.68 | 0.00 | 89 | 1014.3 |
| 20260904061538 | 78 | 0 | 0.0 | 0.0 | 0.00 | 0.68 | 0.00 | 89 | 1014.5 |
| 20260904060056 | 78 | 0 | 0.0 | 0.0 | 0.00 | 0.68 | 0.00 | 89 | 1014.7 |
| 20260904054554 | 78 | 0 | 0.0 | 0.0 | 0.00 | 0.68 | 0.00 | 89 | 1014.7 |
| 20260904053042 | 78 | 0 | 0.0 | 0.0 | 0.00 | 0.68 | 0.00 | 89 | 1014.8 |
| 20260904051539 | 78 | 0 | 0.0 | 2.0 | 0.00 | 0.68 | 0.00 | 89 | 1015.1 |
| 20260904050040 | 79 | 98 | 0.0 | 2.0 | 0.00 | 0.68 | 0.00 | 89 | 1015.2 |
| 20260904044543 | 79 | 125 | 0.0 | 2.0 | 0.00 | 0.68 | 0.00 | 89 | 1015.1 |
| 20260904043041 | 79 | 0 | 0.0 | 2.0 | 0.00 | 0.68 | 0.00 | 89 | 1015.0 |
| 20260904041536 | 79 | 121 | 0.0 | 2.0 | 0.00 | 0.68 | 0.00 | 89 | 1014.9 |
| 20260904040041 | 79 | 0 | 0.0 | 2.0 | 0.00 | 0.68 | 0.00 | 89 | 1014.9 |
| 20260904034534 | 79 | 66 | 0.0 | 3.0 | 0.00 | 0.68 | 0.68 | 89 | 1014.7 |
| 20260904033035 | 79 | 99 | 1.0 | 2.0 | 0.00 | 0.68 | 0.68 | 89 | 1014.6 |
| 20260904031536 | 79 | 83 | 1.0 | 2.0 | 0.00 | 0.68 | 0.68 | 89 | 1014.9 |
| 20260904030037 | 79 | 0 | 0.0 | 0.0 | 0.00 | 0.68 | 0.68 | 88 | 1015.0 |
| 20260904024536 | 79 | 0 | 0.0 | 0.0 | 0.00 | 0.68 | 0.68 | 88 | 1015.0 |
| 20260904023034 | 79 | 0 | 0.0 | 0.0 | 0.00 | 0.68 | 0.68 | 88 | 1015.1 |
| 20260904021537 | 79 | 0 | 0.0 | 0.0 | 0.00 | 0.68 | 0.68 | 88 | 1015.2 |
| 20260904020038 | 79 | 0 | 0.0 | 0.0 | 0.00 | 0.68 | 0.68 | 87 | 1015.3 |
| 20260904014612 | 79 | 0 | 0.0 | 0.0 | 0.00 | 0.68 | 0.68 | 87 | 1015.2 |
| 20260904013044 | 79 | 0 | 0.0 | 0.0 | 0.00 | 0.68 | 0.68 | 87 | 1015.1 |
| 20260904011538 | 80 | 0 | 0.0 | 2.0 | 0.00 | 0.68 | 0.68 | 87 | 1015.1 |
| 20260904010035 | 80 | 0 | 0.0 | 2.0 | 0.00 | 0.68 | 0.68 | 87 | 1015.1 |
| 20260904004535 | 80 | 0 | 0.0 | 2.0 | 0.00 | 0.68 | 0.68 | 86 | 1014.7 |
| 20260904003038 | 80 | 78 | 0.0 | 2.0 | 0.00 | 0.68 | 0.68 | 86 | 1014.6 |
| 20260904001538 | 80 | 0 | 0.0 | 0.0 | 0.00 | 0.68 | 0.68 | 86 | 1014.5 |
| 20260904000035 | 81 | 0 | 0.0 | 2.0 | 0.00 | 0.68 | 0.68 | 85 | 1014.5 |
| 20260903234544 | 81 | 0 | 0.0 | 1.0 | 0.00 | 0.68 | 0.68 | 85 | 1014.7 |
| 20260903233039 | 81 | 0 | 0.0 | 2.0 | 0.00 | 0.68 | 0.68 | 84 | 1014.5 |
| 20260903231537 | 81 | 171 | 0.0 | 2.0 | 0.00 | 0.68 | 0.68 | 84 | 1014.5 |
| 20260903230039 | 82 | 135 | 0.0 | 4.0 | 0.00 | 0.68 | 0.68 | 84 | 1014.4 |
| 20260903224537 | 82 | 0 | 0.0 | 6.0 | 0.00 | 0.68 | 0.68 | 84 | 1014.0 |
| 20260903223039 | 82 | 117 | 1.0 | 3.0 | 0.00 | 0.68 | 0.68 | 83 | 1014.1 |
| 20260903221538 | 82 | 86 | 1.0 | 4.0 | 0.00 | 0.68 | 0.68 | 83 | 1014.0 |
| 20260903220037 | 82 | 88 | 2.0 | 7.0 | 0.00 | 0.68 | 0.68 | 83 | 1013.9 |
| 20260903214541 | 82 | 88 | 1.0 | 9.0 | 0.00 | 0.68 | 0.68 | 82 | 1014.0 |
| 20260903213044 | 83 | 85 | 1.0 | 3.0 | 0.00 | 0.68 | 0.68 | 82 | 1013.9 |
| 20260903211555 | 83 | 80 | 1.0 | 4.0 | 0.00 | 0.68 | 0.68 | 82 | 1013.6 |
| 20260903210038 | 83 | 159 | 2.0 | 4.0 | 0.00 | 0.68 | 0.68 | 82 | 1013.3 |
| 20260903204538 | 83 | 80 | 1.0 | 5.0 | 0.00 | 0.68 | 0.68 | 82 | 1013.3 |
| 20260903203040 | 83 | 67 | 1.0 | 3.0 | 0.00 | 0.68 | 0.68 | 83 | 1013.6 |
| 20260903201538 | 82 | 0 | 0.0 | 4.0 | 0.00 | 0.68 | 0.68 | 85 | 1013.7 |
| 20260903194539 | 81 | 67 | 2.0 | 5.0 | 0.00 | 0.68 | 0.68 | 88 | 1014.2 |
| 20260903193039 | 80 | 86 | 3.0 | 8.0 | 0.00 | 0.68 | 0.68 | 89 | 1014.1 |
| 20260903191539 | 80 | 97 | 1.0 | 6.0 | 0.00 | 0.68 | 0.68 | 90 | 1014.2 |
| 20260903190038 | 80 | 118 | 2.0 | 5.0 | 0.00 | 0.68 | 0.68 | 91 | 1014.4 |
| 20260903184548 | 80 | 71 | 1.0 | 6.0 | 0.00 | 0.68 | 0.68 | 91 | 1014.7 |
| 20260903183035 | 79 | 55 | 1.0 | 8.0 | 0.00 | 0.68 | 0.68 | 91 | 1015.0 |
| 20260903181542 | 79 | 66 | 1.0 | 4.0 | 0.00 | 0.68 | 0.68 | 91 | 1015.3 |
| 20260903180039 | 79 | 62 | 1.0 | 4.0 | 0.00 | 0.68 | 0.68 | 91 | 1015.3 |
| 20260903174539 | 79 | 146 | 1.0 | 4.0 | 0.01 | 0.88 | 0.68 | 92 | 1015.2 |
| 20260903173039 | 78 | 101 | 1.0 | 7.0 | 0.02 | 0.88 | 0.68 | 91 | 1015.3 |